When you browse on this site, cookies collect data to enhance your experience and personalize the content and advertising you see.
Visit our Privacy Policy to learn more. By continuing to use the site, you agree to this use of cookies and data.
  • In Hungary
  • List of Countries
  • For 7 days
  • Water Temperature
  • Weather Map
  • News
  • Weather Widgets
  • user-avatar
    Login

    Hourly Weather Kapustyntsi

    Today, 8 April, Wednesday

    Time Temperature Precipitation Wind Pressure Humidity
    00:00 +8°C° 0 mm 1 mps 748 mmHg 72%
    01:00 +8°C° 0 mm 1 mps 748 mmHg 71%
    02:00 +8°C° 0 mm 1 mps 747 mmHg 47%
    03:00 +7°C° 0 mm 1 mps 747 mmHg 58%
    04:00 +5°C° 0 mm 2 mps 747 mmHg 66%
    05:00 +5°C° 0 mm 1 mps 747 mmHg 70%
    06:00 +4°C° 0 mm 0 mps 746 mmHg 72%
    07:00 +4°C° 0 mm 0 mps 747 mmHg 75%
    08:00 +6°C° 0 mm 0 mps 747 mmHg 79%
    09:00 +10°C° 0 mm 1 mps 747 mmHg 76%
    10:00 +12°C° 0 mm 1 mps 747 mmHg 75%
    11:00 +14°C° 0 mm 2 mps 746 mmHg 71%
    12:00 +16°C° 0 mm 2 mps 746 mmHg 70%
    13:00 +17°C° 0 mm 2 mps 746 mmHg 65%
    14:00 +18°C° 0 mm 3 mps 746 mmHg 58%
    15:00 +18°C° 0 mm 3 mps 746 mmHg 56%
    16:00 +18°C° 0 mm 4 mps 745 mmHg 58%
    17:00 +18°C° 0 mm 4 mps 745 mmHg 61%
    18:00 +17°C° 0 mm 3 mps 745 mmHg 71%
    19:00 +15°C° 0 mm 2 mps 744 mmHg 79%
    20:00 +14°C° 0 mm 2 mps 744 mmHg 88%
    21:00 +12°C° 0 mm 2 mps 744 mmHg 91%
    22:00 +10°C° 0 mm 2 mps 744 mmHg 91%
    23:00 +9°C° 0 mm 2 mps 744 mmHg 92%

    Tomorrow, 9 April, Thursday

    Time Temperature Precipitation Wind Pressure Humidity
    00:00 +8°C° 0 mm 2 mps 744 mmHg 93%
    01:00 +8°C° 0 mm 2 mps 743 mmHg 92%
    02:00 +8°C° 0 mm 1 mps 743 mmHg 93%
    03:00 +8°C° 0 mm 1 mps 743 mmHg 94%
    04:00 +8°C° 0 mm 1 mps 743 mmHg 95%
    05:00 +6°C° 0 mm 0 mps 743 mmHg 96%
    06:00 +6°C° 0 mm 0 mps 742 mmHg 98%
    07:00 +6°C° 0 mm 0 mps 742 mmHg 98%
    08:00 +7°C° 0 mm 0 mps 742 mmHg 97%
    09:00 +11°C° 0 mm 1 mps 742 mmHg 92%
    10:00 +13°C° 0 mm 2 mps 742 mmHg 89%
    11:00 +15°C° 0 mm 2 mps 742 mmHg 87%
    12:00 +16°C° 0 mm 2 mps 742 mmHg 82%
    13:00 +17°C° 0 mm 2 mps 741 mmHg 78%
    14:00 +17°C° 0 mm 2 mps 741 mmHg 70%
    15:00 +17°C° 0 mm 2 mps 740 mmHg 67%
    16:00 +18°C° 0 mm 2 mps 740 mmHg 65%
    17:00 +17°C° 0 mm 2 mps 739 mmHg 69%
    18:00 +17°C° 0 mm 2 mps 739 mmHg 75%
    19:00 +14°C° 0 mm 3 mps 738 mmHg 89%
    20:00 +13°C° 0 mm 2 mps 738 mmHg 99%
    21:00 +13°C° 0 mm 2 mps 738 mmHg 98%
    22:00 +11°C° 0 mm 3 mps 738 mmHg 97%
    23:00 +10°C° 0 mm 3 mps 738 mmHg 95%

    Day after tomorrow, 10 April, Friday

    Time Temperature Precipitation Wind Pressure Humidity
    00:00 +10°C° 0 mm 4 mps 738 mmHg 95%
    01:00 +8°C° 0 mm 5 mps 737 mmHg 95%
    02:00 +8°C° 0 mm 5 mps 737 mmHg 95%
    03:00 +8°C° 0 mm 5 mps 737 mmHg 98%
    04:00 +8°C° 0 mm 5 mps 737 mmHg 99%
    05:00 +7°C° 0 mm 5 mps 738 mmHg 98%
    06:00 +6°C° 0 mm 5 mps 738 mmHg 97%
    07:00 +7°C° 0 mm 5 mps 739 mmHg 95%
    08:00 +7°C° 0 mm 6 mps 739 mmHg 89%
    09:00 +7°C° 0 mm 6 mps 740 mmHg 87%
    10:00 +8°C° 0 mm 7 mps 740 mmHg 85%
    11:00 +8°C° 0 mm 7 mps 740 mmHg 83%
    12:00 +8°C° 0 mm 6 mps 741 mmHg 80%
    13:00 +8°C° 0 mm 6 mps 741 mmHg 79%
    14:00 +8°C° 0 mm 6 mps 741 mmHg 79%
    15:00 +8°C° 0 mm 6 mps 741 mmHg 83%
    16:00 +8°C° 0 mm 6 mps 741 mmHg 77%
    17:00 +7°C° 0 mm 5 mps 741 mmHg 76%
    18:00 +7°C° 0 mm 5 mps 741 mmHg 78%
    19:00 +6°C° 0 mm 4 mps 741 mmHg 83%
    20:00 +5°C° 0 mm 2 mps 742 mmHg 90%
    21:00 +6°C° 0 mm 1 mps 742 mmHg 93%
    22:00 +4°C° 0 mm 2 mps 742 mmHg 94%
    23:00 +4°C° 0 mm 2 mps 742 mmHg 95%

    11 April, Saturday

    Time Temperature Precipitation Wind Pressure Humidity
    00:00 +3°C° 0 mm 2 mps 742 mmHg 97%
    01:00 +3°C° 0 mm 2 mps 742 mmHg 99%
    02:00 +3°C° 0 mm 2 mps 742 mmHg 100%
    03:00 +3°C° 0 mm 2 mps 742 mmHg 100%
    04:00 +3°C° 0 mm 2 mps 743 mmHg 100%
    05:00 +4°C° 0 mm 1 mps 743 mmHg 100%
    06:00 +4°C° 0 mm 1 mps 743 mmHg 99%
    07:00 +4°C° 0 mm 1 mps 743 mmHg 98%
    08:00 +6°C° 0 mm 1 mps 743 mmHg 94%
    09:00 +7°C° 0 mm 1 mps 743 mmHg 87%
    10:00 +8°C° 0 mm 1 mps 744 mmHg 82%
    11:00 +9°C° 0 mm 1 mps 744 mmHg 77%
    12:00 +8°C° 0.1 mm 2 mps 744 mmHg 81%
    13:00 +8°C° 0.1 mm 3 mps 744 mmHg 77%
    14:00 +9°C° 0 mm 2 mps 744 mmHg 71%
    15:00 +10°C° 0 mm 2 mps 744 mmHg 73%
    16:00 +9°C° 0 mm 2 mps 743 mmHg 71%
    17:00 +9°C° 0 mm 3 mps 743 mmHg 80%
    18:00 +9°C° 0 mm 2 mps 743 mmHg 77%
    19:00 +7°C° 0.2 mm 2 mps 743 mmHg 92%
    20:00 +8°C° 0.1 mm 1 mps 744 mmHg 95%
    21:00 +8°C° 0 mm 1 mps 744 mmHg 95%
    22:00 +7°C° 0 mm 0 mps 744 mmHg 93%
    23:00 +7°C° 0 mm 1 mps 744 mmHg 89%

    12 April, Sunday

    Time Temperature Precipitation Wind Pressure Humidity
    00:00 +7°C° 0 mm 1 mps 744 mmHg 90%
    01:00 +5°C° 0 mm 2 mps 744 mmHg 95%
    02:00 +4°C° 0 mm 2 mps 744 mmHg 99%
    03:00 +4°C° 0 mm 2 mps 744 mmHg 100%
    04:00 +3°C° 0 mm 2 mps 743 mmHg 100%
    05:00 +3°C° 0 mm 2 mps 743 mmHg 100%
    06:00 +2°C° 0 mm 2 mps 743 mmHg 100%
    07:00 +3°C° 0 mm 2 mps 743 mmHg 100%
    08:00 +4°C° 0 mm 3 mps 743 mmHg 100%
    09:00 +6°C° 0 mm 4 mps 743 mmHg 96%
    10:00 +8°C° 0 mm 5 mps 743 mmHg 93%
    11:00 +9°C° 0 mm 6 mps 742 mmHg 88%
    12:00 +10°C° 0 mm 5 mps 742 mmHg 89%
    13:00 +10°C° 0 mm 5 mps 742 mmHg 89%
    14:00 +12°C° 0 mm 4 mps 741 mmHg 85%
    15:00 +12°C° 0 mm 4 mps 741 mmHg 87%
    16:00 +12°C° 0 mm 5 mps 740 mmHg 88%
    17:00 +12°C° 0.1 mm 5 mps 740 mmHg 89%
    18:00 +10°C° 0 mm 5 mps 739 mmHg 93%
    19:00 +10°C° 0 mm 4 mps 738 mmHg 96%
    20:00 +10°C° 0 mm 3 mps 738 mmHg 100%
    21:00 +9°C° 0 mm 3 mps 738 mmHg 100%
    22:00 +9°C° 0 mm 2 mps 737 mmHg 100%
    23:00 +9°C° 0 mm 2 mps 737 mmHg 100%

    13 April, Monday

    Time Temperature Precipitation Wind Pressure Humidity
    00:00 +9°C° 0 mm 2 mps 736 mmHg 100%
    01:00 +8°C° 0 mm 2 mps 736 mmHg 100%
    02:00 +8°C° 0 mm 2 mps 735 mmHg 100%
    03:00 +7°C° 0 mm 2 mps 735 mmHg 100%
    04:00 +7°C° 0 mm 1 mps 734 mmHg 100%
    05:00 +7°C° 0 mm 1 mps 734 mmHg 100%
    06:00 +5°C° 0 mm 2 mps 733 mmHg 100%
    07:00 +6°C° 0 mm 2 mps 733 mmHg 100%
    08:00 +7°C° 0 mm 2 mps 733 mmHg 100%
    09:00 +10°C° 0 mm 3 mps 732 mmHg 93%
    10:00 +12°C° 0 mm 3 mps 732 mmHg 88%
    11:00 +13°C° 0 mm 3 mps 731 mmHg 86%
    12:00 +14°C° 0 mm 4 mps 731 mmHg 81%
    13:00 +15°C° 0 mm 4 mps 731 mmHg 80%
    14:00 +15°C° 0.1 mm 4 mps 730 mmHg 83%
    15:00 +17°C° 0 mm 4 mps 729 mmHg 78%
    16:00 +17°C° 0.9 mm 4 mps 728 mmHg 80%
    17:00 +17°C° 0 mm 4 mps 727 mmHg 83%
    18:00 +15°C° 0 mm 4 mps 726 mmHg 84%
    19:00 +14°C° 0 mm 3 mps 726 mmHg 90%
    20:00 +13°C° 0 mm 3 mps 725 mmHg 95%
    21:00 +11°C° 0 mm 6 mps 725 mmHg 92%
    22:00 +9°C° 0.6 mm 5 mps 725 mmHg 93%
    23:00 +8°C° 0.7 mm 3 mps 725 mmHg 95%
    Show more